Time,TemperatureF,DewpointF,PressureIn,WindDirection,WindDirectionDegrees,WindSpeedMPH,WindSpeedGustMPH,Humidity,HourlyPrecipIn,Conditions,Clouds,dailyrainin,SoftwareType,DateUTC
2013-05-18 00:00:00,64.5,55.3,30.04,South,190,0.0,0.0,72,0.00,,,0.00,Wunderground v.1.15,2013-05-18 04:00:00,
2013-05-18 00:05:00,64.4,55.6,30.04,South,190,0.0,0.0,73,0.00,,,0.00,Wunderground v.1.15,2013-05-18 04:05:00,
2013-05-18 00:10:00,64.2,55.7,30.04,South,190,0.0,0.0,74,0.00,,,0.00,Wunderground v.1.15,2013-05-18 04:10:00,
2013-05-18 00:15:00,63.9,55.4,30.04,South,191,0.0,0.0,74,0.00,,,0.00,Wunderground v.1.15,2013-05-18 04:15:00,
2013-05-18 00:25:00,63.5,55.1,30.04,South,191,0.0,0.0,74,0.00,,,0.00,Wunderground v.1.15,2013-05-18 04:25:00,
2013-05-18 00:30:00,63.4,55.0,30.04,South,190,0.0,0.0,74,0.00,,,0.00,Wunderground v.1.15,2013-05-18 04:30:00,
2013-05-18 00:40:00,63.1,55.4,30.03,South,191,0.0,0.0,76,0.00,,,0.00,Wunderground v.1.15,2013-05-18 04:40:00,
2013-05-18 00:45:00,62.8,55.5,30.03,South,190,0.0,0.0,77,0.00,,,0.00,Wunderground v.1.15,2013-05-18 04:45:00,
2013-05-18 00:50:00,62.6,56.0,30.03,South,190,0.0,0.0,79,0.00,,,0.00,Wunderground v.1.15,2013-05-18 04:50:00,
2013-05-18 00:55:00,62.2,55.3,30.03,South,190,0.0,0.0,78,0.00,,,0.00,Wunderground v.1.15,2013-05-18 04:55:00,
2013-05-18 01:00:00,61.9,55.3,30.03,South,190,0.0,0.0,79,0.00,,,0.00,Wunderground v.1.15,2013-05-18 05:00:00,
2013-05-18 03:05:00,62.3,56.7,30.00,South,176,0.0,0.0,82,0.00,,,0.00,Wunderground v.1.15,2013-05-18 07:05:00,
2013-05-18 03:10:00,62.4,56.8,30.00,South,176,0.0,0.0,82,0.00,,,0.00,Wunderground v.1.15,2013-05-18 07:10:00,
2013-05-18 03:15:00,62.4,56.8,30.00,South,176,0.0,0.0,82,0.00,,,0.00,Wunderground v.1.15,2013-05-18 07:15:00,
2013-05-18 03:20:00,62.4,56.8,30.00,South,176,0.0,0.0,82,0.00,,,0.00,Wunderground v.1.15,2013-05-18 07:20:00,
2013-05-18 03:25:00,62.4,56.8,30.00,South,176,0.0,0.0,82,0.00,,,0.00,Wunderground v.1.15,2013-05-18 07:25:00,
2013-05-18 03:35:00,62.5,56.9,30.00,SSE,168,0.0,0.0,82,0.00,,,0.00,Wunderground v.1.15,2013-05-18 07:35:00,
2013-05-18 03:40:00,62.6,57.0,30.00,SSE,167,0.0,0.0,82,0.00,,,0.00,Wunderground v.1.15,2013-05-18 07:40:00,
2013-05-18 03:45:00,62.7,57.1,30.00,SSE,166,0.0,0.0,82,0.00,,,0.00,Wunderground v.1.15,2013-05-18 07:45:00,
2013-05-18 03:50:00,62.8,56.9,30.00,SE,141,0.0,0.0,81,0.00,,,0.00,Wunderground v.1.15,2013-05-18 07:50:00,
2013-05-18 03:55:00,62.9,57.0,30.00,SSE,165,0.0,1.0,81,0.00,,,0.00,Wunderground v.1.15,2013-05-18 07:55:00,
2013-05-18 04:00:00,62.9,57.0,30.00,SE,129,0.0,0.0,81,0.00,,,0.00,Wunderground v.1.15,2013-05-18 08:00:00,
2013-05-18 04:05:00,63.0,57.1,30.00,SE,145,0.0,0.0,81,0.00,,,0.00,Wunderground v.1.15,2013-05-18 08:05:00,
2013-05-18 04:10:00,63.1,57.2,30.00,South,169,0.0,0.0,81,0.00,,,0.00,Wunderground v.1.15,2013-05-18 08:10:00,
2013-05-18 04:20:00,63.2,57.3,30.00,SSE,160,0.0,0.0,81,0.00,,,0.00,Wunderground v.1.15,2013-05-18 08:20:00,
2013-05-18 05:00:00,63.2,57.6,30.00,SSE,149,1.0,1.0,82,0.00,,,0.00,Wunderground v.1.15,2013-05-18 09:00:00,
2013-05-18 05:05:00,63.1,58.2,30.00,SSE,166,1.0,1.0,84,0.00,,,0.00,Wunderground v.1.15,2013-05-18 09:05:00,
2013-05-18 05:10:00,62.9,58.3,30.00,SSW,204,1.0,1.0,85,0.00,,,0.01,Wunderground v.1.15,2013-05-18 09:10:00,
2013-05-18 05:15:00,62.6,58.4,30.01,SSE,162,1.0,1.0,86,0.16,,,0.03,Wunderground v.1.15,2013-05-18 09:15:00,
2013-05-18 05:20:00,62.0,58.1,30.00,South,169,0.0,0.0,87,0.23,,,0.05,Wunderground v.1.15,2013-05-18 09:20:00,
2013-05-18 05:25:00,61.4,58.1,30.01,East,100,1.0,2.0,89,0.15,,,0.06,Wunderground v.1.15,2013-05-18 09:25:00,
2013-05-18 05:30:00,60.9,57.9,30.01,ESE,104,1.0,2.0,90,0.20,,,0.08,Wunderground v.1.15,2013-05-18 09:30:00,
2013-05-18 05:40:00,60.2,57.9,30.02,ESE,108,2.0,2.0,92,0.18,,,0.12,Wunderground v.1.15,2013-05-18 09:40:00,
2013-05-18 05:45:00,59.9,57.9,30.02,SW,214,2.0,2.0,93,0.19,,,0.14,Wunderground v.1.15,2013-05-18 09:45:00,
2013-05-18 05:50:00,59.9,57.9,30.01,South,183,2.0,2.0,93,0.21,,,0.15,Wunderground v.1.15,2013-05-18 09:50:00,
2013-05-18 05:55:00,59.8,58.1,30.01,East,90,1.0,2.0,94,0.20,,,0.17,Wunderground v.1.15,2013-05-18 09:55:00,
2013-05-18 06:00:00,59.7,58.0,30.01,ESE,107,1.0,1.0,94,0.13,,,0.18,Wunderground v.1.15,2013-05-18 10:00:00,
2013-05-18 06:05:00,59.7,58.0,30.01,ESE,107,1.0,2.0,94,0.17,,,0.19,Wunderground v.1.15,2013-05-18 10:05:00,
2013-05-18 06:10:00,59.7,58.3,30.01,ESE,104,0.0,2.0,95,0.14,,,0.20,Wunderground v.1.15,2013-05-18 10:10:00,
2013-05-18 06:15:00,59.7,58.3,30.01,ESE,105,1.0,2.0,95,0.23,,,0.22,Wunderground v.1.15,2013-05-18 10:15:00,
2013-05-18 06:20:00,59.7,58.3,30.01,SSW,198,1.0,1.0,95,0.17,,,0.23,Wunderground v.1.15,2013-05-18 10:20:00,
2013-05-18 06:25:00,59.7,58.3,30.01,SSW,198,0.0,2.0,95,0.12,,,0.24,Wunderground v.1.15,2013-05-18 10:25:00,
2013-05-18 06:30:00,59.6,58.2,30.01,SSW,198,0.0,2.0,95,0.08,,,0.24,Wunderground v.1.15,2013-05-18 10:30:00,
2013-05-18 06:35:00,59.7,58.3,30.01,SSW,199,0.0,2.0,95,0.05,,,0.25,Wunderground v.1.15,2013-05-18 10:35:00,
2013-05-18 06:40:00,59.7,58.3,30.02,SSW,198,0.0,2.0,95,0.60,,,0.29,Wunderground v.1.15,2013-05-18 10:40:00,
2013-05-18 06:45:00,59.7,58.3,30.02,SSE,166,0.0,2.0,95,0.46,,,0.38,Wunderground v.1.15,2013-05-18 10:45:00,
2013-05-18 06:55:00,59.7,58.3,30.02,East,87,1.0,2.0,95,0.30,,,0.46,Wunderground v.1.15,2013-05-18 10:55:00,
2013-05-18 07:00:00,59.7,58.6,30.02,ENE,76,1.0,2.0,96,0.31,,,0.49,Wunderground v.1.15,2013-05-18 11:00:00,
2013-05-18 07:05:00,59.8,58.7,30.03,SE,146,1.0,2.0,96,0.32,,,0.51,Wunderground v.1.15,2013-05-18 11:05:00,
2013-05-18 07:10:00,59.8,58.7,30.03,ESE,108,1.0,2.0,96,0.29,,,0.54,Wunderground v.1.15,2013-05-18 11:10:00,
2013-05-18 07:20:00,59.8,58.7,30.03,SE,146,2.0,2.0,96,0.24,,,0.59,Wunderground v.1.15,2013-05-18 11:20:00,
2013-05-18 07:25:00,59.8,58.7,30.04,ESE,108,1.0,2.0,96,0.33,,,0.61,Wunderground v.1.15,2013-05-18 11:25:00,
2013-05-18 07:30:00,59.9,58.8,30.04,SW,225,1.0,2.0,96,0.18,,,0.63,Wunderground v.1.15,2013-05-18 11:30:00,
2013-05-18 07:35:00,59.9,58.8,30.04,ESE,114,1.0,2.0,96,0.36,,,0.65,Wunderground v.1.15,2013-05-18 11:35:00,
2013-05-18 07:40:00,59.9,58.8,30.04,East,96,1.0,3.0,96,0.14,,,0.66,Wunderground v.1.15,2013-05-18 11:40:00,
2013-05-18 07:45:00,59.9,58.8,30.03,SE,130,2.0,3.0,96,0.42,,,0.69,Wunderground v.1.15,2013-05-18 11:45:00,
2013-05-18 07:50:00,59.9,58.8,30.03,ESE,107,2.0,2.0,96,0.36,,,0.72,Wunderground v.1.15,2013-05-18 11:50:00,
2013-05-18 08:00:00,59.8,58.7,30.03,East,82,2.0,2.0,96,0.13,,,0.74,Wunderground v.1.15,2013-05-18 12:00:00,
2013-05-18 08:05:00,59.7,58.6,30.03,SE,139,2.0,2.0,96,0.13,,,0.75,Wunderground v.1.15,2013-05-18 12:05:00,
2013-05-18 08:10:00,59.6,58.5,30.03,ESE,105,2.0,2.0,96,0.22,,,0.77,Wunderground v.1.15,2013-05-18 12:10:00,
2013-05-18 08:15:00,59.5,58.4,30.03,SE,134,1.0,2.0,96,0.13,,,0.78,Wunderground v.1.15,2013-05-18 12:15:00,
2013-05-18 08:25:00,59.4,58.3,30.03,ESE,120,1.0,3.0,96,0.23,,,0.81,Wunderground v.1.15,2013-05-18 12:25:00,
2013-05-18 08:30:00,59.4,58.3,30.03,SE,125,1.0,1.0,96,0.14,,,0.82,Wunderground v.1.15,2013-05-18 12:30:00,
2013-05-18 08:40:00,59.6,58.5,30.03,ENE,70,1.0,3.0,96,0.35,,,0.86,Wunderground v.1.15,2013-05-18 12:40:00,
2013-05-18 08:45:00,59.7,58.6,30.03,East,86,2.0,3.0,96,0.32,,,0.89,Wunderground v.1.15,2013-05-18 12:45:00,
2013-05-18 08:50:00,59.7,58.6,30.03,South,178,3.0,3.0,96,0.27,,,0.91,Wunderground v.1.15,2013-05-18 12:50:00,
2013-05-18 08:55:00,59.7,58.6,30.03,SE,143,3.0,3.0,96,0.17,,,0.93,Wunderground v.1.15,2013-05-18 12:55:00,
2013-05-18 09:00:00,59.7,58.6,30.03,East,96,2.0,2.0,96,0.10,,,0.94,Wunderground v.1.15,2013-05-18 13:00:00,
2013-05-18 09:05:00,59.8,58.7,30.03,ESE,119,2.0,2.0,96,0.10,,,0.94,Wunderground v.1.15,2013-05-18 13:05:00,
2013-05-18 09:10:00,59.8,58.7,30.04,SE,145,1.0,3.0,96,0.07,,,0.95,Wunderground v.1.15,2013-05-18 13:10:00,
2013-05-18 09:15:00,59.8,58.7,30.04,SE,134,2.0,3.0,96,0.31,,,0.98,Wunderground v.1.15,2013-05-18 13:15:00,
2013-05-18 09:20:00,59.9,58.8,30.04,ESE,116,2.0,2.0,96,0.10,,,0.98,Wunderground v.1.15,2013-05-18 13:20:00,
2013-05-18 09:25:00,59.9,58.8,30.04,South,172,2.0,3.0,96,0.06,,,0.98,Wunderground v.1.15,2013-05-18 13:25:00,
2013-05-18 09:30:00,59.9,58.8,30.04,East,80,2.0,2.0,96,0.05,,,0.99,Wunderground v.1.15,2013-05-18 13:30:00,
2013-05-18 09:35:00,59.9,58.8,30.04,SE,139,2.0,3.0,96,0.05,,,0.99,Wunderground v.1.15,2013-05-18 13:35:00,
2013-05-18 09:40:00,59.9,59.0,30.04,ESE,105,2.0,3.0,97,0.05,,,0.99,Wunderground v.1.15,2013-05-18 13:40:00,
2013-05-18 09:45:00,60.0,59.1,30.04,East,88,3.0,3.0,97,0.00,,,0.99,Wunderground v.1.15,2013-05-18 13:45:00,
2013-05-18 09:50:00,60.0,59.1,30.04,ESE,106,3.0,3.0,97,0.00,,,0.99,Wunderground v.1.15,2013-05-18 13:50:00,
2013-05-18 09:55:00,60.0,59.1,30.05,East,85,3.0,3.0,97,0.00,,,0.99,Wunderground v.1.15,2013-05-18 13:55:00,
2013-05-18 10:00:00,60.0,59.1,30.04,SSE,153,2.0,2.0,97,0.00,,,0.99,Wunderground v.1.15,2013-05-18 14:00:00,
2013-05-18 10:05:00,60.1,59.2,30.04,SE,133,2.0,2.0,97,0.00,,,0.99,Wunderground v.1.15,2013-05-18 14:05:00,
2013-05-18 10:10:00,60.1,59.2,30.04,ESE,106,2.0,2.0,97,0.00,,,0.99,Wunderground v.1.15,2013-05-18 14:10:00,
2013-05-18 10:15:00,60.2,59.3,30.04,SE,132,2.0,2.0,97,0.00,,,0.99,Wunderground v.1.15,2013-05-18 14:15:00,
2013-05-18 10:20:00,60.2,59.3,30.04,East,83,2.0,2.0,97,0.00,,,0.99,Wunderground v.1.15,2013-05-18 14:20:00,
2013-05-18 10:25:00,60.3,59.4,30.04,East,97,2.0,2.0,97,0.00,,,0.99,Wunderground v.1.15,2013-05-18 14:25:00,
2013-05-18 10:30:00,60.3,59.4,30.04,East,89,2.0,2.0,97,0.00,,,0.99,Wunderground v.1.15,2013-05-18 14:30:00,
2013-05-18 10:35:00,60.4,59.5,30.04,East,79,2.0,3.0,97,0.00,,,0.99,Wunderground v.1.15,2013-05-18 14:35:00,
2013-05-18 10:40:00,60.5,59.6,30.04,ESE,104,2.0,2.0,97,0.00,,,0.99,Wunderground v.1.15,2013-05-18 14:40:00,
2013-05-18 10:45:00,60.5,59.4,30.04,SE,135,2.0,3.0,96,0.00,,,0.99,Wunderground v.1.15,2013-05-18 14:45:00,
2013-05-18 10:50:00,60.6,59.5,30.04,East,96,2.0,2.0,96,0.00,,,0.99,Wunderground v.1.15,2013-05-18 14:50:00,
2013-05-18 10:55:00,60.6,59.5,30.04,East,98,2.0,2.0,96,0.00,,,0.99,Wunderground v.1.15,2013-05-18 14:55:00,
2013-05-18 11:00:00,60.6,59.5,30.04,East,91,1.0,3.0,96,0.00,,,0.99,Wunderground v.1.15,2013-05-18 15:00:00,
2013-05-18 11:05:00,60.5,59.4,30.04,East,91,2.0,3.0,96,0.00,,,1.00,Wunderground v.1.15,2013-05-18 15:05:00,
2013-05-18 11:10:00,60.5,59.4,30.04,East,96,2.0,2.0,96,0.00,,,1.00,Wunderground v.1.15,2013-05-18 15:10:00,
2013-05-18 11:15:00,60.5,59.4,30.04,SE,145,1.0,2.0,96,0.00,,,1.00,Wunderground v.1.15,2013-05-18 15:15:00,
2013-05-18 11:20:00,60.6,59.5,30.04,SE,141,1.0,2.0,96,0.00,,,1.00,Wunderground v.1.15,2013-05-18 15:20:00,
2013-05-18 11:25:00,60.7,59.6,30.04,East,85,1.0,2.0,96,0.00,,,1.00,Wunderground v.1.15,2013-05-18 15:25:00,
2013-05-18 11:30:00,60.7,59.6,30.04,ENE,75,2.0,2.0,96,0.00,,,1.00,Wunderground v.1.15,2013-05-18 15:30:00,
2013-05-18 11:40:00,60.8,59.7,30.04,East,80,2.0,2.0,96,0.00,,,1.00,Wunderground v.1.15,2013-05-18 15:40:00,
2013-05-18 11:45:00,60.9,59.8,30.04,ESE,120,2.0,2.0,96,0.00,,,1.00,Wunderground v.1.15,2013-05-18 15:45:00,
2013-05-18 11:50:00,60.9,59.8,30.04,East,98,2.0,3.0,96,0.00,,,1.00,Wunderground v.1.15,2013-05-18 15:50:00,
2013-05-18 11:55:00,60.9,59.8,30.04,SSW,192,2.0,4.0,96,0.00,,,1.00,Wunderground v.1.15,2013-05-18 15:55:00,
2013-05-18 12:00:00,61.0,59.9,30.04,ESE,114,2.0,3.0,96,0.00,,,1.00,Wunderground v.1.15,2013-05-18 16:00:00,
2013-05-18 12:05:00,61.1,60.0,30.04,East,95,2.0,3.0,96,0.00,,,1.00,Wunderground v.1.15,2013-05-18 16:05:00,
2013-05-18 12:10:00,61.1,60.0,30.04,ESE,104,2.0,2.0,96,0.00,,,1.00,Wunderground v.1.15,2013-05-18 16:10:00,
2013-05-18 12:15:00,61.1,60.0,30.04,East,100,2.0,2.0,96,0.00,,,1.01,Wunderground v.1.15,2013-05-18 16:15:00,
2013-05-18 12:20:00,61.0,59.6,30.04,ESE,107,2.0,2.0,95,0.00,,,1.01,Wunderground v.1.15,2013-05-18 16:20:00,
2013-05-18 12:25:00,60.9,59.5,30.04,SE,136,2.0,2.0,95,0.00,,,1.01,Wunderground v.1.15,2013-05-18 16:25:00,
2013-05-18 12:30:00,61.1,59.7,30.03,SE,143,2.0,2.0,95,0.00,,,1.01,Wunderground v.1.15,2013-05-18 16:30:00,
2013-05-18 12:35:00,61.1,59.7,30.03,SSE,149,2.0,2.0,95,0.00,,,1.01,Wunderground v.1.15,2013-05-18 16:35:00,
2013-05-18 12:40:00,61.1,59.7,30.03,East,86,2.0,2.0,95,0.00,,,1.01,Wunderground v.1.15,2013-05-18 16:40:00,
2013-05-18 12:45:00,61.1,59.7,30.03,East,79,2.0,3.0,95,0.00,,,1.01,Wunderground v.1.15,2013-05-18 16:45:00,
2013-05-18 12:50:00,61.2,59.5,30.03,ESE,121,2.0,2.0,94,0.00,,,1.01,Wunderground v.1.15,2013-05-18 16:50:00,
2013-05-18 12:55:00,61.5,60.1,30.03,South,169,2.0,2.0,95,0.00,,,1.01,Wunderground v.1.15,2013-05-18 16:55:00,
2013-05-18 13:00:00,61.7,60.0,30.03,ESE,109,2.0,2.0,94,0.00,,,1.01,Wunderground v.1.15,2013-05-18 17:00:00,
2013-05-18 13:10:00,61.7,60.0,30.03,ESE,110,2.0,3.0,94,0.00,,,1.01,Wunderground v.1.15,2013-05-18 17:10:00,
2013-05-18 13:15:00,61.7,60.0,30.03,SSE,149,2.0,3.0,94,0.00,,,1.01,Wunderground v.1.15,2013-05-18 17:15:00,
2013-05-18 13:20:00,61.7,60.0,30.03,ESE,104,2.0,2.0,94,0.00,,,1.02,Wunderground v.1.15,2013-05-18 17:20:00,
2013-05-18 13:25:00,61.6,59.9,30.03,ESE,107,2.0,2.0,94,0.00,,,1.02,Wunderground v.1.15,2013-05-18 17:25:00,
2013-05-18 13:30:00,61.6,59.9,30.03,SSE,148,1.0,2.0,94,0.00,,,1.02,Wunderground v.1.15,2013-05-18 17:30:00,
2013-05-18 13:35:00,61.7,60.3,30.03,East,99,1.0,2.0,95,0.00,,,1.02,Wunderground v.1.15,2013-05-18 17:35:00,
2013-05-18 13:40:00,61.6,60.2,30.03,SE,130,1.0,2.0,95,0.00,,,1.02,Wunderground v.1.15,2013-05-18 17:40:00,
2013-05-18 13:45:00,61.6,60.2,30.02,SSE,160,1.0,2.0,95,0.00,,,1.02,Wunderground v.1.15,2013-05-18 17:45:00,
2013-05-18 13:50:00,61.7,60.3,30.02,ESE,113,1.0,1.0,95,0.00,,,1.02,Wunderground v.1.15,2013-05-18 17:50:00,
2013-05-18 13:55:00,61.8,60.4,30.02,ESE,110,1.0,2.0,95,0.00,,,1.02,Wunderground v.1.15,2013-05-18 17:55:00,
2013-05-18 14:00:00,61.8,60.4,30.02,ESE,110,0.0,2.0,95,0.00,,,1.02,Wunderground v.1.15,2013-05-18 18:00:00,
2013-05-18 14:05:00,61.9,60.5,30.02,ESE,108,0.0,2.0,95,0.00,,,1.02,Wunderground v.1.15,2013-05-18 18:05:00,
2013-05-18 14:10:00,62.0,60.6,30.02,SE,135,0.0,2.0,95,0.00,,,1.02,Wunderground v.1.15,2013-05-18 18:10:00,
2013-05-18 14:15:00,62.0,60.3,30.02,SSE,167,1.0,2.0,94,0.00,,,1.02,Wunderground v.1.15,2013-05-18 18:15:00,
2013-05-18 14:20:00,61.9,60.2,30.02,SSE,165,1.0,1.0,94,0.00,,,1.02,Wunderground v.1.15,2013-05-18 18:20:00,
2013-05-18 14:25:00,62.0,60.3,30.02,SSE,165,1.0,2.0,94,0.00,,,1.02,Wunderground v.1.15,2013-05-18 18:25:00,
2013-05-18 14:30:00,62.1,60.4,30.02,SE,139,0.0,2.0,94,0.00,,,1.02,Wunderground v.1.15,2013-05-18 18:30:00,
2013-05-18 14:35:00,62.0,60.3,30.02,SE,139,0.0,2.0,94,0.00,,,1.02,Wunderground v.1.15,2013-05-18 18:35:00,
2013-05-18 14:40:00,62.0,60.3,30.02,SE,139,0.0,2.0,94,0.00,,,1.02,Wunderground v.1.15,2013-05-18 18:40:00,
2013-05-18 14:45:00,61.9,60.2,30.01,SE,145,0.0,2.0,94,0.00,,,1.02,Wunderground v.1.15,2013-05-18 18:45:00,
2013-05-18 14:50:00,61.9,60.2,30.02,SE,145,0.0,2.0,94,0.00,,,1.02,Wunderground v.1.15,2013-05-18 18:50:00,
2013-05-18 14:55:00,61.9,60.2,30.02,SSE,155,0.0,2.0,94,0.00,,,1.02,Wunderground v.1.15,2013-05-18 18:55:00,
2013-05-18 15:05:00,61.9,60.2,30.02,SE,136,0.0,2.0,94,0.00,,,1.02,Wunderground v.1.15,2013-05-18 19:05:00,
2013-05-18 15:10:00,62.0,60.3,30.01,South,173,0.0,2.0,94,0.00,,,1.02,Wunderground v.1.15,2013-05-18 19:10:00,
2013-05-18 15:15:00,62.1,60.4,30.01,ESE,117,0.0,2.0,94,0.00,,,1.02,Wunderground v.1.15,2013-05-18 19:15:00,
2013-05-18 15:20:00,62.2,60.5,30.01,ESE,105,0.0,2.0,94,0.00,,,1.02,Wunderground v.1.15,2013-05-18 19:20:00,
2013-05-18 15:25:00,62.2,60.5,30.01,ESE,104,0.0,2.0,94,0.00,,,1.02,Wunderground v.1.15,2013-05-18 19:25:00,
2013-05-18 15:30:00,62.2,60.5,30.01,ESE,104,0.0,2.0,94,0.00,,,1.02,Wunderground v.1.15,2013-05-18 19:30:00,
2013-05-18 15:35:00,62.3,60.6,30.01,ESE,105,0.0,2.0,94,0.00,,,1.02,Wunderground v.1.15,2013-05-18 19:35:00,
2013-05-18 15:40:00,62.3,60.6,30.01,ESE,103,0.0,2.0,94,0.00,,,1.02,Wunderground v.1.15,2013-05-18 19:40:00,
2013-05-18 15:45:00,62.3,60.6,30.01,ESE,103,0.0,2.0,94,0.00,,,1.02,Wunderground v.1.15,2013-05-18 19:45:00,
2013-05-18 15:55:00,62.3,60.6,30.01,SE,135,0.0,2.0,94,0.00,,,1.02,Wunderground v.1.15,2013-05-18 19:55:00,
2013-05-18 16:00:00,62.4,60.7,30.01,ESE,110,0.0,2.0,94,0.00,,,1.02,Wunderground v.1.15,2013-05-18 20:00:00,
2013-05-18 16:05:00,62.3,60.6,30.01,South,172,1.0,3.0,94,0.00,,,1.02,Wunderground v.1.15,2013-05-18 20:05:00,
2013-05-18 16:10:00,62.2,60.5,30.01,East,88,2.0,3.0,94,0.00,,,1.02,Wunderground v.1.15,2013-05-18 20:10:00,
2013-05-18 16:15:00,62.1,60.4,30.00,East,89,2.0,3.0,94,0.00,,,1.02,Wunderground v.1.15,2013-05-18 20:15:00,
2013-05-18 16:20:00,62.0,60.6,30.01,SE,125,1.0,1.0,95,0.00,,,1.02,Wunderground v.1.15,2013-05-18 20:20:00,
2013-05-18 16:25:00,61.9,60.5,30.00,SSW,193,1.0,2.0,95,0.00,,,1.03,Wunderground v.1.15,2013-05-18 20:25:00,
2013-05-18 16:30:00,62.0,60.6,30.01,ESE,116,0.0,2.0,95,0.00,,,1.03,Wunderground v.1.15,2013-05-18 20:30:00,
2013-05-18 16:35:00,62.0,60.6,30.00,SSW,197,1.0,2.0,95,0.00,,,1.03,Wunderground v.1.15,2013-05-18 20:35:00,
2013-05-18 16:40:00,62.0,60.6,30.01,SE,141,1.0,1.0,95,0.00,,,1.03,Wunderground v.1.15,2013-05-18 20:40:00,
2013-05-18 16:45:00,61.9,60.5,30.00,ESE,120,1.0,2.0,95,0.00,,,1.03,Wunderground v.1.15,2013-05-18 20:45:00,
2013-05-18 16:50:00,61.9,60.5,30.00,South,172,1.0,2.0,95,0.00,,,1.03,Wunderground v.1.15,2013-05-18 20:50:00,
2013-05-18 16:55:00,62.0,60.6,30.00,SSE,155,1.0,2.0,95,0.00,,,1.03,Wunderground v.1.15,2013-05-18 20:55:00,
2013-05-18 17:00:00,61.9,60.5,30.00,West,264,1.0,2.0,95,0.00,,,1.03,Wunderground v.1.15,2013-05-18 21:00:00,
2013-05-18 17:05:00,61.9,60.5,30.00,ESE,104,1.0,4.0,95,0.00,,,1.03,Wunderground v.1.15,2013-05-18 21:05:00,
2013-05-18 17:10:00,61.9,60.5,30.00,ESE,114,2.0,2.0,95,0.00,,,1.03,Wunderground v.1.15,2013-05-18 21:10:00,
2013-05-18 17:15:00,62.0,60.6,30.00,SE,124,1.0,2.0,95,0.00,,,1.03,Wunderground v.1.15,2013-05-18 21:15:00,
2013-05-18 17:20:00,62.0,60.6,30.00,ESE,105,1.0,2.0,95,0.00,,,1.03,Wunderground v.1.15,2013-05-18 21:20:00,
2013-05-18 17:25:00,61.9,60.5,30.00,SW,236,1.0,2.0,95,0.00,,,1.03,Wunderground v.1.15,2013-05-18 21:25:00,
2013-05-18 17:30:00,61.9,60.5,30.00,SE,129,1.0,2.0,95,0.00,,,1.03,Wunderground v.1.15,2013-05-18 21:30:00,
2013-05-18 17:35:00,62.0,60.6,30.00,ESE,110,1.0,2.0,95,0.00,,,1.03,Wunderground v.1.15,2013-05-18 21:35:00,
2013-05-18 17:45:00,62.1,60.7,30.00,ESE,104,1.0,2.0,95,0.00,,,1.03,Wunderground v.1.15,2013-05-18 21:45:00,
2013-05-18 17:50:00,62.1,60.7,30.00,ESE,118,2.0,2.0,95,0.00,,,1.03,Wunderground v.1.15,2013-05-18 21:50:00,
2013-05-18 17:55:00,62.1,60.7,30.00,East,92,2.0,3.0,95,0.00,,,1.03,Wunderground v.1.15,2013-05-18 21:55:00,
2013-05-18 18:00:00,62.1,60.7,30.00,East,85,2.0,2.0,95,0.00,,,1.03,Wunderground v.1.15,2013-05-18 22:00:00,
2013-05-18 18:05:00,62.1,60.7,30.00,East,91,2.0,2.0,95,0.00,,,1.03,Wunderground v.1.15,2013-05-18 22:05:00,
2013-05-18 18:10:00,62.1,60.7,30.00,East,98,2.0,3.0,95,0.00,,,1.03,Wunderground v.1.15,2013-05-18 22:10:00,
2013-05-18 18:15:00,62.1,60.7,30.00,East,85,2.0,3.0,95,0.00,,,1.03,Wunderground v.1.15,2013-05-18 22:15:00,
2013-05-18 18:20:00,62.1,60.7,30.00,ESE,107,2.0,2.0,95,0.00,,,1.03,Wunderground v.1.15,2013-05-18 22:20:00,
2013-05-18 18:25:00,62.2,61.0,30.00,ESE,112,2.0,2.0,96,0.00,,,1.03,Wunderground v.1.15,2013-05-18 22:25:00,
2013-05-18 18:30:00,62.2,61.0,30.00,ESE,110,2.0,2.0,96,0.00,,,1.03,Wunderground v.1.15,2013-05-18 22:30:00,
2013-05-18 18:35:00,62.3,61.1,30.00,South,190,2.0,2.0,96,0.00,,,1.03,Wunderground v.1.15,2013-05-18 22:35:00,
2013-05-18 18:40:00,62.3,61.1,30.00,South,170,2.0,3.0,96,0.00,,,1.03,Wunderground v.1.15,2013-05-18 22:40:00,
2013-05-18 18:45:00,62.3,61.1,30.00,SE,129,2.0,5.0,96,0.00,,,1.03,Wunderground v.1.15,2013-05-18 22:45:00,
2013-05-18 18:50:00,62.3,61.1,30.00,East,99,2.0,3.0,96,0.00,,,1.03,Wunderground v.1.15,2013-05-18 22:50:00,
2013-05-18 18:55:00,62.3,61.1,30.00,East,98,2.0,3.0,96,0.00,,,1.03,Wunderground v.1.15,2013-05-18 22:55:00,
2013-05-18 19:00:00,62.2,61.0,30.00,East,93,2.0,2.0,96,0.00,,,1.03,Wunderground v.1.15,2013-05-18 23:00:00,
2013-05-18 19:05:00,62.2,61.0,30.01,East,81,2.0,2.0,96,0.00,,,1.03,Wunderground v.1.15,2013-05-18 23:05:00,
2013-05-18 19:10:00,62.1,60.9,30.01,SE,127,2.0,2.0,96,0.00,,,1.03,Wunderground v.1.15,2013-05-18 23:10:00,
2013-05-18 19:20:00,62.1,60.9,30.01,South,169,1.0,2.0,96,0.00,,,1.03,Wunderground v.1.15,2013-05-18 23:20:00,
2013-05-18 19:25:00,62.1,60.9,30.01,East,100,1.0,2.0,96,0.00,,,1.03,Wunderground v.1.15,2013-05-18 23:25:00,
2013-05-18 19:30:00,62.0,60.6,30.01,East,93,2.0,2.0,95,0.00,,,1.03,Wunderground v.1.15,2013-05-18 23:30:00,
2013-05-18 19:35:00,62.0,60.8,30.02,SE,146,2.0,2.0,96,0.00,,,1.03,Wunderground v.1.15,2013-05-18 23:35:00,
2013-05-18 19:40:00,62.0,60.8,30.02,ESE,123,1.0,1.0,96,0.00,,,1.03,Wunderground v.1.15,2013-05-18 23:40:00,
2013-05-18 19:45:00,61.8,60.4,30.02,South,173,1.0,2.0,95,0.00,,,1.03,Wunderground v.1.15,2013-05-18 23:45:00,
2013-05-18 19:50:00,61.8,60.4,30.02,ESE,113,2.0,2.0,95,0.00,,,1.03,Wunderground v.1.15,2013-05-18 23:50:00,
2013-05-18 19:55:00,61.8,60.4,30.02,ESE,121,1.0,2.0,95,0.00,,,1.03,Wunderground v.1.15,2013-05-18 23:55:00,
2013-05-18 20:05:00,61.7,60.3,30.02,ESE,113,1.0,2.0,95,0.00,,,1.03,Wunderground v.1.15,2013-05-19 00:05:00,
2013-05-18 20:10:00,61.7,60.3,30.02,South,188,1.0,2.0,95,0.00,,,1.03,Wunderground v.1.15,2013-05-19 00:10:00,
2013-05-18 20:15:00,61.6,60.2,30.02,South,172,1.0,2.0,95,0.00,,,1.03,Wunderground v.1.15,2013-05-19 00:15:00,
2013-05-18 20:20:00,61.6,60.2,30.02,ESE,103,1.0,2.0,95,0.00,,,1.03,Wunderground v.1.15,2013-05-19 00:20:00,
2013-05-18 20:25:00,61.6,60.2,30.02,SE,144,1.0,2.0,95,0.00,,,1.03,Wunderground v.1.15,2013-05-19 00:25:00,
2013-05-18 20:30:00,61.6,60.2,30.02,ESE,115,1.0,2.0,95,0.00,,,1.03,Wunderground v.1.15,2013-05-19 00:30:00,
2013-05-18 20:35:00,61.6,60.2,30.02,South,174,2.0,2.0,95,0.00,,,1.03,Wunderground v.1.15,2013-05-19 00:35:00,
2013-05-18 20:40:00,61.6,60.2,30.02,SE,136,2.0,2.0,95,0.00,,,1.03,Wunderground v.1.15,2013-05-19 00:40:00,
2013-05-18 20:45:00,61.6,60.2,30.02,ESE,114,1.0,3.0,95,0.00,,,1.03,Wunderground v.1.15,2013-05-19 00:45:00,
2013-05-18 20:50:00,61.6,60.2,30.02,ESE,103,2.0,2.0,95,0.00,,,1.03,Wunderground v.1.15,2013-05-19 00:50:00,
2013-05-18 20:55:00,61.6,60.2,30.03,ESE,107,2.0,2.0,95,0.00,,,1.03,Wunderground v.1.15,2013-05-19 00:55:00,
2013-05-18 21:00:00,61.5,59.8,30.03,ESE,108,1.0,2.0,94,0.00,,,1.03,Wunderground v.1.15,2013-05-19 01:00:00,
2013-05-18 21:05:00,61.5,59.8,30.03,ESE,122,2.0,3.0,94,0.00,,,1.03,Wunderground v.1.15,2013-05-19 01:05:00,
2013-05-18 21:10:00,61.4,59.7,30.03,ESE,104,2.0,2.0,94,0.00,,,1.03,Wunderground v.1.15,2013-05-19 01:10:00,
2013-05-18 21:15:00,61.4,59.7,30.03,ESE,120,2.0,2.0,94,0.00,,,1.03,Wunderground v.1.15,2013-05-19 01:15:00,
2013-05-18 21:20:00,61.5,59.8,30.04,SE,124,2.0,2.0,94,0.00,,,1.03,Wunderground v.1.15,2013-05-19 01:20:00,
2013-05-18 21:30:00,61.3,59.9,30.04,SW,219,1.0,3.0,95,0.00,,,1.03,Wunderground v.1.15,2013-05-19 01:30:00,
2013-05-18 21:35:00,61.3,59.9,30.04,SE,146,1.0,3.0,95,0.00,,,1.03,Wunderground v.1.15,2013-05-19 01:35:00,
2013-05-18 21:40:00,61.3,59.9,30.04,SE,125,1.0,2.0,95,0.00,,,1.03,Wunderground v.1.15,2013-05-19 01:40:00,
2013-05-18 21:45:00,61.3,59.9,30.04,SE,146,1.0,2.0,95,0.00,,,1.03,Wunderground v.1.15,2013-05-19 01:45:00,
2013-05-18 21:50:00,61.2,59.8,30.04,SSE,158,1.0,2.0,95,0.00,,,1.03,Wunderground v.1.15,2013-05-19 01:50:00,
2013-05-18 21:55:00,61.2,59.8,30.04,SSE,160,1.0,2.0,95,0.00,,,1.03,Wunderground v.1.15,2013-05-19 01:55:00,
2013-05-18 22:00:00,61.1,59.7,30.04,SSE,165,1.0,2.0,95,0.00,,,1.03,Wunderground v.1.15,2013-05-19 02:00:00,
2013-05-18 22:05:00,61.0,59.6,30.04,South,177,1.0,2.0,95,0.00,,,1.03,Wunderground v.1.15,2013-05-19 02:05:00,
2013-05-18 22:10:00,61.0,59.6,30.04,SSE,156,1.0,2.0,95,0.00,,,1.03,Wunderground v.1.15,2013-05-19 02:10:00,
2013-05-18 22:15:00,60.9,59.5,30.04,ESE,117,1.0,2.0,95,0.00,,,1.03,Wunderground v.1.15,2013-05-19 02:15:00,
2013-05-18 22:20:00,60.9,59.5,30.04,South,186,1.0,1.0,95,0.00,,,1.03,Wunderground v.1.15,2013-05-19 02:20:00,
2013-05-18 22:25:00,60.8,59.4,30.04,ESE,114,1.0,2.0,95,0.00,,,1.03,Wunderground v.1.15,2013-05-19 02:25:00,
2013-05-18 22:30:00,60.6,59.2,30.04,ESE,119,1.0,2.0,95,0.00,,,1.03,Wunderground v.1.15,2013-05-19 02:30:00,
2013-05-18 22:35:00,60.5,59.1,30.04,SSE,164,1.0,2.0,95,0.00,,,1.03,Wunderground v.1.15,2013-05-19 02:35:00,
2013-05-18 22:40:00,60.5,59.1,30.04,SE,135,1.0,1.0,95,0.00,,,1.03,Wunderground v.1.15,2013-05-19 02:40:00,
2013-05-18 22:45:00,60.4,59.3,30.04,SE,145,0.0,2.0,96,0.00,,,1.03,Wunderground v.1.15,2013-05-19 02:45:00,
2013-05-18 22:50:00,60.4,59.3,30.04,ESE,122,1.0,2.0,96,0.00,,,1.03,Wunderground v.1.15,2013-05-19 02:50:00,
2013-05-18 22:55:00,60.5,59.4,30.03,SE,141,1.0,2.0,96,0.00,,,1.03,Wunderground v.1.15,2013-05-19 02:55:00,
2013-05-18 23:00:00,60.5,59.1,30.03,East,101,1.0,2.0,95,0.00,,,1.03,Wunderground v.1.15,2013-05-19 03:00:00,
2013-05-18 23:05:00,60.5,59.1,30.03,SE,145,1.0,2.0,95,0.00,,,1.03,Wunderground v.1.15,2013-05-19 03:05:00,
2013-05-18 23:10:00,60.5,59.1,30.03,SSE,158,1.0,2.0,95,0.00,,,1.03,Wunderground v.1.15,2013-05-19 03:10:00,
2013-05-18 23:20:00,60.3,59.2,30.03,South,181,1.0,1.0,96,0.00,,,1.03,Wunderground v.1.15,2013-05-19 03:20:00,
2013-05-18 23:25:00,60.3,59.2,30.03,SE,140,1.0,2.0,96,0.00,,,1.03,Wunderground v.1.15,2013-05-19 03:25:00,
2013-05-18 23:30:00,60.2,59.1,30.04,SSE,157,1.0,2.0,96,0.00,,,1.03,Wunderground v.1.15,2013-05-19 03:30:00,
2013-05-18 23:35:00,60.3,59.2,30.04,SSE,160,1.0,2.0,96,0.00,,,1.03,Wunderground v.1.15,2013-05-19 03:35:00,
2013-05-18 23:40:00,60.3,59.2,30.04,SSE,157,1.0,1.0,96,0.00,,,1.03,Wunderground v.1.15,2013-05-19 03:40:00,
2013-05-18 23:45:00,60.3,59.2,30.04,SE,141,0.0,2.0,96,0.00,,,1.03,Wunderground v.1.15,2013-05-19 03:45:00,
2013-05-18 23:50:00,60.3,59.2,30.04,SSE,153,0.0,2.0,96,0.00,,,1.03,Wunderground v.1.15,2013-05-19 03:50:00,
2013-05-18 23:55:00,60.3,59.2,30.04,SE,125,0.0,2.0,96,0.00,,,1.03,Wunderground v.1.15,2013-05-19 03:55:00,